sat.trackr.live / text

‹ back to catalog

STARLINK-1260

NORAD 45404 · 2020-019AW

PAYLOAD ACTIVE UNKNOWN

§ Identity

Operator
Country
US
Launch date
2020-03-18
Launch site
AFETR
Launch vehicle
Mass (kg)
RCS (m²)

Purposes: comms

External: N2YO · Heavens-Above · Gunter

§ Orbital elements

Epoch: 2026-05-24T23:20:23.498016Z

Period
93.74 min
Inclination
53.1557°
Eccentricity
0.0005958
Mean motion
15.36212004 rev/d
Perigee alt
453.3 km
Apogee alt
461.4 km
Semi-major
6,835.5 km
B*
1.0926e-3
RAAN
133.3494°
Arg perigee
37.1317°
Mean anomaly
323.0098°
Rev number
34,167

§ Raw data

STARLINK-12601 45404U 20019AW  26144.97249419  .00038952  00000+0  10926-2 0  99972 45404  53.1557 133.3494 0005958  37.1317 323.0098 15.36212004341671

JSON: /api/v1/satellites/45404 · /tle

For live sub-satellite position, see the globe view (requires WebGL).

§ Visibility from observer

Set your observer location to see the next 7 days of passes ≥ 10°. The values pass through the URL so the page stays shareable.

No JS? Fill the form by hand. The geolocation button needs JavaScript.